Wind_Speed
17 16 15 14 14 14 13 12 10 8 7 7 9 11 13 14 14 14 14 13 13 12 11 10 9 9 8 8 7 6 6 5 4 4 3 3 3 2 2 2 2 2 2
17 16 15 14 14 13 12 12 11 9 7 7 7 9 11 14 14 14 13 14 14 13 12 11 10 10 9 9 8 8 7 6 6 5 5 4 3 3 3 3 3 3 2
16 14 14 14 13 13 13 13 11 9 7 6 6 8 10 13 15 14 14 14 15 15 14 13 11 11 10 10 10 9 9 8 7 7 6 5 5 4 4 4 4 4 4
15 13 14 14 13 14 13 13 11 8 7 6 6 7 9 10 13 14 14 15 15 14 14 14 13 12 12 11 11 11 10 9 9 9 8 7 7 6 6 6 6 5 5
15 15 14 14 13 13 13 13 11 9 7 6 6 7 8 9 11 13 14 15 15 14 14 15 15 14 13 13 13 12 12 11 11 10 10 10 9 9 9 9 8 8 8
15 14 14 14 13 13 13 12 11 8 6 6 6 7 8 8 9 11 13 14 14 15 15 15 16 15 15 14 14 14 13 13 12 12 12 12 11 11 11 11 11 11 11
16 15 14 14 13 13 12 12 11 8 7 6 5 6 7 8 9 10 12 13 14 15 15 16 17 17 16 16 16 15 14 14 14 14 14 13 13 14 14 14 14 14 15
16 15 14 14 13 12 12 12 10 8 6 5 6 6 6 7 9 11 12 13 14 15 16 16 17 17 18 17 17 16 16 16 16 16 16 16 16 17 16 17 17 17 18
16 14 13 13 12 11 11 11 9 7 6 6 6 7 8 9 9 11 12 13 14 15 16 16 17 17 18 18 18 18 18 18 18 18 18 18 19 19 19 19 20 21 21
15 14 14 12 12 12 11 10 9 8 7 7 7 9 9 10 11 11 12 13 14 15 16 17 17 18 19 19 19 19 19 20 20 20 20 20 20 21 22 22 23 23 23
16 15 14 14 13 13 12 11 10 9 8 8 8 8 9 10 12 13 13 14 15 16 17 18 18 18 19 19 19 20 20 21 21 21 22 22 22 21 21 22 24 25 25
17 16 15 14 14 14 13 12 11 11 10 9 10 9 10 10 11 12 13 14 15 16 17 18 19 19 19 19 19 20 20 21 21 22 23 23 23 23 24 24 25 26 27
18 17 17 16 14 14 13 13 12 12 11 11 11 11 11 11 12 12 14 15 15 16 16 17 19 19 19 19 19 20 20 21 22 22 23 24 24 25 26 26 27 27 28
18 18 18 17 16 14 14 14 14 13 13 13 13 13 13 13 13 14 14 15 16 16 17 18 18 19 20 20 21 22 22 22 23 24 25 25 26 27 27 28 28 28 28
20 19 18 17 17 17 15 15 15 14 14 14 15 14 15 15 15 15 15 15 15 16 16 18 19 20 21 21 22 22 22 23 23 25 26 27 28 29 30 30 30 30 30
22 21 20 19 19 19 18 17 17 17 17 16 16 16 16 16 16 16 17 17 16 17 17 18 19 20 20 21 22 23 24 24 24 26 27 28 29 30 29 29 30 30 31
24 23 23 22 20 20 20 19 19 19 18 18 17 17 16 17 18 18 18 19 19 19 19 19 20 21 21 23 23 23 23 24 25 27 28 28 28 28 29 29 30 30 31
25 25 24 23 22 21 21 21 21 20 20 20 20 19 19 19 19 19 20 20 20 21 21 21 21 22 22 22 23 24 25 26 27 28 28 28 27 27 29 30 30 31 32
26 26 26 25 24 23 22 22 22 22 22 22 22 22 21 21 20 20 20 21 21 22 22 22 22 22 23 24 24 26 26 27 27 27 28 28 28 29 29 31 31 32 33
28 27 26 26 25 25 24 24 24 24 24 24 23 23 22 22 21 21 21 21 22 23 23 23 23 23 24 24 26 26 26 27 27 28 28 29 30 30 30 31 32 34 35
28 27 27 27 26 26 26 25 25 25 25 24 24 24 23 23 23 23 22 22 22 22 22 22 23 24 24 25 26 26 26 27 27 28 28 29 30 31 32 33 34 35 36
29 29 29 28 28 27 27 27 26 26 26 26 26 26 25 24 24 23 22 22 22 22 23 23 24 24 25 25 26 26 26 26 27 28 29 30 31 32 33 34 35 36 37
31 31 30 30 29 29 29 29 29 28 28 27 27 27 26 25 24 24 24 24 24 24 24 24 25 25 25 25 26 26 26 27 27 28 29 30 31 32 34 34 35 36 37
34 33 32 32 32 31 31 30 30 30 29 29 28 27 26 26 26 26 26 25 25 25 25 25 26 26 26 27 27 27 26 27 28 30 31 31 32 33 34 35 35 35 36
35 35 34 34 34 33 33 32 31 31 30 30 29 28 27 27 27 27 27 27 26 26 26 26 27 27 27 27 27 27 28 29 30 30 30 32 32 33 33 33 33 34 35
37 36 35 35 35 34 33 33 32 31 31 31 30 29 29 28 28 28 28 27 27 26 27 27 27 27 27 27 26 27 28 29 30 30 30 30 31 31 31 31 32 34 35
Wind_Direction
323 323 324 326 330 332 330 327 322 313 294 274 250 237 228 227 225 225 226 228 230 236 240 240 240 242 241 243 242 236 229 228 228 228 230 221 221 236 244 235 250 261 274
320 321 321 321 326 328 329 329 323 310 299 281 256 234 227 225 224 224 226 229 230 235 237 238 240 241 243 242 244 244 238 235 236 235 240 235 233 247 250 260 265 266 273
315 319 319 318 324 329 327 327 323 310 296 282 262 244 233 226 225 225 226 230 233 236 237 237 237 241 244 245 245 246 240 239 240 242 246 244 245 251 258 265 268 271 272
312 315 321 316 321 326 326 325 323 307 292 280 260 245 236 229 223 224 226 231 236 234 234 237 240 242 243 245 243 244 242 243 244 244 246 249 247 250 251 259 263 271 277
314 316 320 319 318 321 322 324 322 313 294 278 256 241 233 229 224 224 226 230 233 233 233 235 239 241 241 241 243 244 245 245 246 246 246 249 250 254 255 260 264 270 276
310 311 314 319 319 320 320 321 320 316 299 278 256 238 230 231 231 229 229 231 235 238 237 236 239 240 240 242 244 246 246 246 247 247 248 250 253 259 261 265 267 271 274
306 308 308 314 316 317 319 321 321 312 296 277 254 234 229 232 232 233 234 235 239 240 238 239 242 241 241 243 246 248 248 249 249 250 252 255 257 260 263 267 271 274 276
302 303 307 312 315 317 319 320 319 311 297 275 252 246 242 242 242 238 242 241 241 241 241 243 245 243 243 244 246 249 250 252 254 255 256 258 260 261 266 269 273 276 277
302 302 308 310 317 320 320 319 317 316 302 284 263 256 253 252 255 249 247 247 247 246 246 245 247 247 248 246 246 249 252 253 256 258 259 261 264 266 268 272 275 277 279
302 302 304 310 315 315 316 318 314 313 302 287 275 267 263 261 258 255 250 249 251 251 249 250 252 253 252 250 249 250 253 255 257 260 262 264 266 269 270 274 276 276 278
304 305 303 301 303 304 306 313 313 308 299 289 279 272 270 267 258 256 253 253 254 254 251 250 252 255 255 253 253 252 252 255 258 262 263 265 266 269 271 274 276 277 278
299 300 301 300 300 302 303 303 303 302 298 291 288 280 281 276 265 261 261 260 260 256 254 253 253 254 256 255 254 255 255 256 259 262 264 265 265 269 271 274 276 279 280
294 296 299 298 297 298 298 298 296 296 295 292 289 283 281 278 273 269 266 267 267 261 257 256 255 255 257 257 255 257 257 258 261 263 264 266 268 271 274 276 279 280 281
289 292 295 294 293 292 293 295 295 292 292 289 287 282 279 278 276 273 270 270 270 266 261 258 256 257 259 260 260 261 262 261 263 264 265 268 271 272 276 278 279 280 281
288 291 294 293 290 287 287 291 293 291 290 291 288 284 280 278 278 278 275 274 273 272 267 262 260 261 262 263 264 266 265 264 266 268 268 270 272 274 277 278 279 279 280
286 286 289 288 286 284 285 285 288 290 289 288 287 286 281 279 278 279 277 275 275 273 270 269 264 262 263 264 265 268 268 268 271 272 272 274 276 278 279 279 280 282 283
284 283 285 285 285 283 283 285 286 286 287 287 287 286 286 281 279 277 277 276 276 275 271 270 266 265 265 266 268 271 270 272 275 276 276 277 279 279 279 279 281 284 286
280 281 282 283 283 282 282 283 285 285 285 285 285 285 286 287 285 282 280 279 278 276 274 271 270 268 266 268 270 271 273 275 276 278 278 279 280 282 282 283 284 285 287
277 278 279 280 281 280 281 282 283 283 284 285 284 284 284 284 285 283 282 281 278 276 277 275 272 272 270 271 273 275 276 277 277 278 279 279 279 282 284 286 286 287 288
274 276 278 279 279 279 280 281 281 282 283 283 283 284 283 282 282 282 281 280 277 276 278 278 277 276 276 276 276 277 275 277 278 279 280 282 282 285 288 289 287 288 291
272 274 276 277 277 278 278 279 280 281 283 283 282 283 282 280 281 281 281 281 280 280 280 280 278 278 280 280 279 279 278 278 280 282 283 285 287 289 290 290 290 291 293
271 273 274 276 276 277 278 279 280 281 281 282 282 283 282 280 280 281 280 281 281 282 281 280 278 278 279 278 278 280 280 282 284 286 287 289 291 292 292 291 292 294 295
270 272 273 274 275 277 278 278 279 280 280 281 281 281 279 280 279 279 280 281 282 281 279 279 277 278 279 279 279 279 280 283 285 288 290 290 290 292 293 294 295 296 296
268 269 271 272 274 275 277 278 278 278 279 279 279 279 279 279 278 278 279 279 281 280 278 279 279 277 277 280 280 280 281 284 286 288 293 294 293 295 297 298 297 297 297
266 268 269 271 273 274 275 276 276 277 277 277 278 277 276 276 276 276 277 278 279 280 278 278 279 278 279 281 281 281 283 286 289 291 293 295 296 298 298 298 298 299 299
265 266 267 269 271 272 272 273 274 275 276 275 274 273 274 275 274 275 275 275 276 278 279 278 279 278 280 281 282 283 286 288 290 291 293 295 295 297 299 300 301 301 301
Height
5880 5877 5875 5873 5872 5870 5868 5867 5865 5865 5864 5865 5866 5868 5870 5872 5875 5877 5880 5883 5885 5887 5889 5891 5892 5894 5895 5896 5896 5897 5898 5899 5899 5900 5901 5901 5901 5902 5902 5902 5903 5903 5903
5878 5876 5874 5873 5871 5869 5867 5866 5864 5863 5863 5863 5864 5866 5867 5870 5873 5875 5878 5881 5883 5885 5887 5889 5891 5893 5894 5894 5895 5896 5897 5898 5899 5899 5900 5900 5901 5901 5902 5902 5902 5903 5903
5876 5875 5873 5872 5870 5868 5867 5865 5863 5861 5861 5861 5862 5864 5866 5868 5871 5874 5876 5879 5881 5883 5885 5887 5889 5891 5892 5893 5894 5895 5896 5897 5897 5898 5899 5899 5900 5900 5901 5901 5902 5902 5902
5873 5872 5871 5870 5869 5868 5866 5864 5862 5860 5860 5860 5861 5862 5864 5866 5869 5872 5874 5876 5879 5881 5883 5885 5887 5888 5890 5891 5892 5893 5894 5895 5896 5896 5897 5898 5899 5899 5900 5900 5900 5901 5901
5873 5871 5870 5869 5868 5867 5865 5863 5861 5859 5859 5859 5860 5861 5863 5865 5867 5870 5872 5874 5876 5878 5880 5883 5884 5886 5888 5889 5890 5891 5892 5893 5894 5895 5896 5896 5897 5898 5898 5899 5899 5899 5899
5872 5871 5870 5868 5867 5866 5864 5862 5861 5859 5858 5858 5859 5860 5862 5864 5866 5868 5870 5872 5874 5876 5878 5880 5882 5883 5885 5886 5888 5889 5890 5891 5892 5893 5894 5894 5895 5896 5896 5897 5897 5897 5898
5871 5869 5869 5867 5866 5865 5863 5861 5860 5858 5857 5858 5858 5859 5861 5863 5865 5866 5868 5870 5872 5874 5876 5877 5879 5881 5882 5883 5885 5886 5887 5888 5889 5890 5891 5892 5893 5894 5894 5894 5894 5894 5894
5869 5867 5866 5865 5864 5863 5862 5860 5859 5857 5857 5857 5858 5859 5860 5862 5863 5865 5866 5868 5869 5871 5873 5875 5876 5877 5879 5880 5881 5883 5884 5885 5886 5887 5888 5889 5890 5890 5891 5891 5891 5891 5891
5866 5864 5865 5864 5863 5862 5861 5859 5858 5857 5856 5856 5857 5858 5859 5861 5862 5863 5864 5865 5867 5868 5870 5871 5873 5874 5875 5877 5878 5879 5880 5882 5883 5883 5884 5885 5886 5886 5887 5887 5887 5887 5887
5865 5864 5863 5861 5861 5861 5860 5859 5857 5856 5856 5856 5856 5857 5858 5859 5859 5860 5861 5862 5864 5865 5866 5868 5869 5870 5872 5873 5874 5875 5876 5877 5878 5879 5880 5881 5881 5882 5882 5882 5882 5882 5882
5863 5862 5861 5861 5860 5859 5859 5858 5856 5856 5855 5855 5855 5855 5856 5857 5857 5858 5859 5860 5861 5862 5863 5864 5865 5866 5867 5868 5870 5871 5872 5873 5874 5875 5876 5876 5876 5877 5877 5877 5876 5876 5876
5861 5860 5859 5859 5858 5857 5857 5856 5855 5854 5854 5854 5853 5853 5853 5854 5855 5855 5856 5856 5857 5858 5859 5860 5861 5862 5863 5864 5865 5866 5867 5868 5869 5870 5871 5871 5871 5872 5872 5871 5871 5870 5869
5858 5858 5857 5856 5856 5855 5854 5854 5853 5852 5852 5852 5852 5852 5852 5852 5852 5852 5853 5853 5853 5854 5855 5855 5856 5857 5858 5859 5860 5862 5863 5864 5864 5865 5866 5866 5866 5866 5866 5866 5865 5864 5863
5856 5855 5854 5853 5853 5852 5852 5851 5851 5850 5850 5849 5849 5849 5849 5849 5849 5849 5849 5850 5850 5850 5850 5851 5852 5853 5854 5855 5855 5856 5857 5858 5859 5860 5860 5860 5860 5860 5860 5859 5858 5857 5856
5853 5852 5850 5849 5850 5850 5849 5848 5848 5847 5847 5846 5846 5846 5845 5845 5845 5846 5846 5846 5846 5846 5846 5847 5848 5849 5849 5850 5851 5851 5852 5853 5853 5854 5854 5854 5854 5854 5853 5852 5851 5850 5849
5849 5848 5848 5847 5847 5846 5846 5845 5845 5844 5844 5843 5843 5842 5842 5842 5842 5842 5842 5842 5842 5842 5843 5843 5843 5844 5845 5845 5845 5846 5847 5847 5847 5847 5847 5847 5847 5846 5846 5845 5844 5843 5842
5845 5845 5844 5844 5843 5843 5842 5842 5841 5841 5840 5840 5839 5839 5838 5838 5837 5837 5838 5838 5838 5838 5839 5839 5839 5839 5840 5840 5840 5841 5840 5841 5841 5841 5841 5840 5840 5839 5838 5838 5836 5835 5834
5840 5840 5839 5839 5839 5838 5838 5837 5837 5837 5836 5836 5835 5834 5834 5834 5833 5833 5833 5833 5833 5833 5833 5833 5834 5834 5834 5834 5834 5835 5834 5834 5835 5834 5834 5833 5833 5832 5831 5830 5828 5827 5825
5835 5835 5834 5834 5834 5834 5833 5833 5832 5832 5831 5831 5830 5829 5829 5829 5828 5828 5827 5827 5827 5827 5827 5827 5827 5828 5828 5828 5828 5828 5828 5828 5828 5827 5827 5826 5826 5825 5823 5822 5820 5819 5817
5828 5829 5829 5829 5828 5828 5828 5828 5827 5827 5826 5825 5825 5824 5823 5823 5823 5822 5822 5822 5821 5821 5821 5821 5821 5821 5822 5822 5822 5822 5821 5821 5821 5820 5819 5819 5818 5817 5815 5814 5812 5810 5808
5822 5822 5823 5823 5823 5822 5822 5822 5821 5821 5820 5819 5819 5818 5818 5817 5817 5817 5816 5816 5815 5815 5815 5815 5815 5815 5815 5815 5815 5815 5814 5814 5814 5813 5812 5811 5810 5809 5807 5805 5803 5801 5798
5815 5816 5816 5816 5816 5816 5816 5816 5815 5815 5814 5814 5813 5813 5812 5812 5811 5811 5811 5810 5810 5809 5809 5809 5809 5809 5809 5809 5808 5808 5807 5807 5806 5806 5805 5803 5802 5800 5798 5796 5793 5791 5788
5809 5809 5809 5809 5809 5809 5809 5809 5809 5808 5808 5807 5807 5806 5806 5805 5804 5804 5804 5804 5804 5803 5803 5803 5803 5802 5802 5802 5802 5801 5800 5800 5799 5798 5797 5795 5793 5791 5789 5786 5783 5780 5778
5801 5801 5802 5802 5802 5802 5802 5802 5801 5801 5801 5800 5800 5799 5799 5799 5798 5798 5798 5798 5798 5797 5797 5796 5796 5795 5795 5795 5795 5794 5793 5792 5791 5789 5788 5786 5784 5782 5779 5776 5773 5770 5767
5792 5793 5793 5794 5794 5794 5794 5794 5794 5793 5793 5793 5792 5792 5792 5792 5792 5791 5791 5791 5791 5790 5790 5789 5789 5788 5788 5787 5787 5786 5785 5784 5783 5781 5779 5777 5775 5773 5770 5767 5763 5760 5757
5784 5784 5785 5785 5785 5785 5786 5786 5785 5785 5785 5785 5785 5785 5784 5784 5784 5784 5784 5783 5783 5783 5783 5782 5782 5781 5781 5780 5779 5778 5777 5776 5774 5773 5771 5769 5766 5764 5760 5757 5754 5751 5747